PST,Max TemperatureF,Mean TemperatureF,Min TemperatureF,Max Dew PointF,MeanDew PointF,Min DewpointF,Max Humidity, Mean Humidity, Min Humidity, Max Sea Level PressureIn, Mean Sea Level PressureIn, Min Sea Level PressureIn, Max VisibilityMiles, Mean VisibilityMiles, Min VisibilityMiles, Max Wind SpeedMPH, Mean Wind SpeedMPH, Max Gust SpeedMPH,PrecipitationIn, CloudCover, Events, WindDirDegrees
2013-1-1,55,45,34,45,38,32,100,88,55,30.36,30.30,30.22,10,9,5,12,5,,0.00,0,,137
2013-1-2,55,46,36,45,36,34,92,83,54,30.24,30.17,30.10,10,10,4,10,6,10,0.00,0,,142
2013-1-3,55,46,36,48,40,34,100,84,61,30.30,30.14,30.05,10,9,2,18,9,23,0.11,6,,162
2013-1-4,54,48,41,48,46,41,100,96,83,30.32,30.24,30.16,10,8,0,8,4,8,0.02,4,,153
2013-1-5,50,47,43,46,44,41,100,95,86,30.22,30.17,30.13,10,10,5,8,4,9,0.04,6,,147
2013-1-6,54,49,43,48,44,41,100,93,77,30.25,30.21,30.17,10,9,0,9,5,,0.05,8,,159
2013-1-7,52,49,46,52,49,45,100,98,93,30.29,30.23,30.16,10,5,1,15,7,21,0.18,8,,190
2013-1-8,55,52,48,52,50,46,100,94,86,30.29,30.18,30.01,10,10,3,14,9,25,0.02,6,,194
2013-1-9,52,45,37,48,42,36,100,87,71,30.06,30.00,29.86,10,9,2,21,12,27,0.30,6,,237
2013-1-10,46,41,36,41,37,36,100,89,65,30.22,30.15,30.05,10,9,6,21,11,30,0.73,7,,79
2013-1-11,46,40,34,39,36,34,100,87,65,30.32,30.26,30.19,10,10,7,13,7,24,0.02,4,,112
2013-1-12,45,38,30,36,33,28,100,90,65,30.40,30.32,30.29,10,10,10,8,5,,0.00,4,,127
2013-1-13,43,35,27,32,29,27,100,85,62,30.47,30.43,30.39,10,10,10,9,6,,0.00,0,,103
2013-1-14,48,38,28,37,32,27,100,85,58,30.55,30.52,30.46,10,10,10,12,5,,0.00,1,,107
2013-1-15,54,42,30,37,34,28,100,87,54,30.60,30.56,30.54,10,10,7,12,5,,0.00,0,,53
2013-1-16,57,43,28,43,36,28,100,86,51,30.55,30.46,30.37,10,9,2,7,1,,0.00,0,,36
2013-1-17,63,50,36,46,38,34,100,80,36,30.37,30.27,30.21,10,8,0,8,3,,0.00,2,,151
2013-1-18,46,40,34,45,39,34,100,98,92,30.27,30.23,30.20,10,5,0,8,3,8,0.00,6,,241
2013-1-19,45,38,30,43,37,30,100,97,89,30.31,30.27,30.22,10,3,0,8,3,8,0.00,6,,89
2013-1-20,52,42,32,45,37,32,100,94,71,30.29,30.24,30.19,10,5,0,8,3,8,0.00,3,,152
2013-1-21,63,49,34,45,36,30,100,82,32,30.21,30.14,30.08,10,10,2,10,6,9,0.00,0,,133
2013-1-22,61,49,37,45,39,34,93,77,39,30.09,29.99,29.92,10,10,8,12,6,,0.00,1,,127
2013-1-23,48,44,39,46,43,39,100,95,80,30.20,29.99,29.87,10,7,0,13,4,18,0.73,7,,127
2013-1-24,57,47,36,52,43,36,100,94,77,30.20,30.16,30.11,10,8,0,10,6,18,0.07,6,,167
2013-1-25,54,48,41,52,48,41,100,98,93,30.17,30.09,30.04,10,7,1,13,6,21,0.20,7,,199
2013-1-26,52,47,41,46,42,39,100,91,77,30.17,30.07,30.03,10,10,3,14,7,26,0.23,6,,190
2013-1-27,46,42,37,45,42,37,100,97,86,30.25,30.19,30.15,10,9,5,14,7,,0.97,7,,162
2013-1-28,48,47,45,46,44,41,100,92,86,30.38,30.31,30.20,10,9,2,16,10,21,0.09,7,,306
2013-1-29,48,46,43,46,45,41,100,97,92,30.57,30.51,30.39,10,5,1,16,6,21,0.19,8,,284
2013-1-30,48,44,39,48,43,37,100,97,92,30.58,30.54,30.49,10,6,0,10,4,12,0.00,8,,144
2013-1-31,55,46,36,50,43,36,100,94,66,30.48,30.41,30.35,10,6,0,8,3,,0.00,3,,58